Theta_e
351 352 352 351 351 350 350 348 348 348 348 350 353 354 354 355 356 356 356 356 355 354 353 353 353 353 354 353 353 354 354 354 355 353 353 353 353 353 352 353 351 350 351 353 354 353 353 354 354 356 357 358 358 358 357 357 358 359 358 358 356 352 349 346 346 346 344 344 344 344 344 345 345 346 346 345 344 344 344 345 346 345 345 347 348
349 352 352 352 351 351 350 350 351 352 353 354 354 354 354 354 356 357 357 357 356 354 354 354 354 354 354 354 354 354 354 354 354 353 354 354 353 353 353 353 352 352 352 353 354 354 353 354 355 358 359 359 359 359 359 358 358 359 359 357 355 352 349 347 347 346 343 344 346 345 344 345 345 346 345 344 343 342 343 344 344 345 344 345 346
348 350 352 351 352 353 352 353 352 354 355 355 354 355 355 354 356 358 358 357 357 356 356 356 355 355 355 354 354 354 354 354 355 355 354 354 353 354 354 353 352 353 353 353 354 354 354 354 355 358 359 359 360 362 360 359 359 359 357 357 355 352 349 348 348 346 344 345 346 346 345 345 346 346 344 342 342 342 342 342 342 343 343 344 345
348 347 350 350 351 353 353 353 353 354 355 354 354 355 355 355 356 358 359 358 358 358 358 357 355 355 355 354 355 355 355 355 356 356 356 355 354 355 355 353 353 353 353 353 354 354 355 356 357 357 359 359 360 360 360 359 359 358 356 357 357 352 348 347 347 347 347 347 347 346 346 346 345 345 344 343 342 340 341 341 341 342 342 344 346
349 347 347 349 350 352 353 353 354 354 355 355 355 355 355 355 356 358 359 359 359 359 358 358 355 354 355 355 355 355 354 354 355 356 356 356 354 354 355 354 354 354 354 353 353 354 355 357 359 359 359 359 359 359 358 358 358 357 357 358 357 354 350 347 347 347 349 351 351 348 348 348 347 345 345 344 342 341 340 340 341 343 343 345 346
348 347 347 348 349 350 352 353 354 353 354 354 354 354 355 355 356 357 359 359 359 359 358 357 356 354 354 355 354 354 354 354 355 355 355 354 353 354 355 354 355 355 355 354 354 354 356 358 359 359 358 359 358 359 358 357 357 356 357 358 357 356 354 349 347 347 349 351 351 350 351 350 348 348 347 345 344 342 340 341 341 343 342 344 345
348 348 347 348 348 350 351 352 353 352 353 353 353 353 354 355 356 357 358 358 359 359 358 357 356 355 354 353 352 353 353 354 356 356 354 354 355 355 355 356 356 356 355 355 355 355 356 358 359 359 358 358 359 359 358 356 356 356 358 358 358 358 356 352 348 346 348 349 349 349 350 350 349 349 349 347 346 344 342 342 341 341 342 343 344
348 347 346 348 348 349 350 351 351 350 351 353 352 353 354 355 356 357 357 358 359 359 358 357 356 356 355 354 353 352 351 353 356 356 356 356 356 356 356 357 357 357 357 356 355 356 357 359 360 360 359 359 359 359 358 356 356 357 358 358 359 358 357 356 353 349 347 348 349 350 349 349 350 349 349 349 348 346 344 344 343 342 343 343 343
348 347 347 348 348 348 349 350 349 349 351 351 351 353 354 356 356 356 358 358 359 359 357 356 356 356 355 354 354 353 351 352 353 354 356 356 356 357 358 358 358 358 358 357 357 357 358 360 362 361 360 359 359 359 358 357 357 358 359 358 359 358 357 357 356 354 351 349 350 352 352 350 349 348 347 348 348 347 345 344 345 344 344 345 344
349 348 349 349 348 348 348 348 348 348 349 350 351 352 354 355 356 356 357 358 358 359 358 356 356 356 356 355 355 354 353 353 352 354 355 357 357 357 358 358 357 357 357 359 359 359 359 360 361 361 360 359 359 359 359 357 357 358 359 359 359 359 358 357 357 356 355 353 352 353 354 351 350 349 348 347 348 348 346 343 343 344 346 346 345
350 349 350 349 348 348 348 347 348 348 350 350 350 352 353 354 355 356 357 358 358 359 358 356 355 355 356 356 356 354 354 355 355 356 356 358 358 358 358 357 357 356 357 358 359 359 359 360 359 359 359 359 360 360 358 357 357 357 358 359 359 359 359 359 358 357 356 355 354 353 352 350 350 351 350 350 349 349 348 345 344 345 345 346 346
352 350 349 349 349 348 348 348 349 349 349 350 350 351 352 353 355 356 357 357 358 358 358 357 355 355 355 356 356 354 355 356 357 357 357 358 357 358 360 359 358 357 356 357 358 358 359 360 359 359 360 359 360 360 358 358 358 357 358 359 359 360 359 359 359 357 357 356 354 353 352 350 351 350 349 350 350 351 350 347 346 346 345 345 346
353 352 349 349 349 349 349 348 350 351 351 351 350 350 351 353 354 356 357 357 357 358 358 357 356 355 356 356 355 355 356 356 358 357 357 358 357 359 360 360 359 358 357 357 357 357 359 360 360 361 361 362 362 362 360 360 360 359 359 359 360 360 360 360 359 357 357 357 355 355 353 352 352 351 350 350 350 351 350 347 348 347 345 345 346
353 353 348 348 350 349 350 350 351 353 353 352 350 350 351 353 355 356 357 358 357 357 358 358 357 356 356 356 355 356 357 357 357 357 356 357 358 359 359 358 359 358 357 357 357 357 357 359 361 361 363 364 364 363 362 362 362 361 360 360 360 361 361 360 359 358 357 356 355 355 354 353 354 352 351 351 349 350 349 349 351 350 347 345 346
353 353 350 349 350 350 351 351 353 354 353 352 350 350 353 355 357 357 357 358 357 357 357 358 358 357 357 357 355 356 356 356 356 356 357 357 357 357 358 358 358 358 358 358 358 359 358 360 361 360 363 364 362 362 361 361 362 361 361 360 359 360 360 360 359 358 357 357 356 356 356 354 355 354 352 352 351 351 352 352 353 353 351 349 346
353 354 350 350 351 351 351 352 354 354 353 352 351 353 355 357 359 359 358 358 358 357 357 357 358 358 358 357 356 356 356 356 356 357 357 357 357 357 358 359 359 358 359 359 359 359 358 360 360 360 363 363 361 362 361 361 362 361 361 361 359 358 360 360 360 358 356 356 356 357 357 355 355 355 354 354 354 354 355 354 353 353 354 353 350
354 354 352 351 352 351 352 353 354 353 353 353 353 355 357 359 360 360 359 358 357 357 357 357 358 358 358 358 356 356 356 355 355 356 356 356 357 358 357 358 358 358 359 357 358 359 358 359 360 359 361 362 361 361 361 362 363 361 361 361 359 358 360 360 360 359 357 356 355 357 357 355 355 355 355 354 356 357 356 355 354 353 355 356 354
355 355 352 352 352 352 352 353 353 352 352 353 354 356 358 359 359 359 358 357 356 356 356 356 356 357 358 358 357 356 356 354 353 354 355 355 357 358 357 357 358 359 359 358 358 359 359 359 360 360 360 361 361 360 360 363 363 360 361 362 360 360 361 361 360 359 358 356 356 356 356 356 356 356 355 355 356 357 357 356 356 356 357 357 357
358 356 354 353 352 353 353 352 353 353 353 353 355 356 357 358 357 356 356 356 355 353 353 355 355 355 356 357 357 356 355 354 353 354 355 355 356 357 357 358 359 359 359 360 359 359 359 359 360 360 360 360 360 360 361 363 362 360 360 359 359 360 361 361 360 359 358 358 358 357 358 358 357 357 356 355 356 357 357 357 357 357 359 358 359
357 356 355 354 353 353 353 352 353 354 354 354 355 356 356 356 357 356 355 356 355 352 352 354 354 353 353 355 356 357 356 355 354 355 356 356 356 357 357 357 358 358 359 359 359 359 358 359 359 358 358 359 360 359 359 362 362 361 359 358 359 361 361 361 360 358 357 358 359 359 359 359 359 359 358 357 357 357 357 357 357 358 359 359 361
356 355 354 354 353 351 350 351 353 354 353 353 354 356 356 356 357 357 357 358 357 355 353 354 354 353 353 354 355 356 356 355 354 354 356 356 356 356 356 356 357 358 358 358 358 358 358 358 357 357 357 358 360 360 359 361 362 362 362 360 361 363 362 360 359 359 358 358 359 359 359 360 360 360 359 358 357 357 357 357 357 358 358 359 361
355 354 354 354 354 351 349 350 352 352 353 353 354 354 354 356 356 357 358 358 358 357 355 356 356 353 353 354 354 354 355 354 353 354 355 355 356 356 357 356 356 357 358 357 358 358 358 358 357 358 358 358 361 361 359 359 360 362 362 360 360 362 361 359 359 359 358 357 358 358 358 359 359 359 359 357 356 356 356 356 357 357 358 358 360
355 354 354 355 354 354 353 351 352 353 352 352 354 354 354 355 356 357 359 359 358 358 358 359 358 356 355 355 353 353 353 353 352 352 353 353 354 355 356 357 356 357 357 357 357 357 358 358 358 359 360 360 361 361 359 359 361 362 363 360 359 361 361 360 360 360 358 357 358 358 358 357 357 357 359 357 356 355 355 356 357 357 358 358 359
355 356 357 357 357 357 354 351 351 353 354 355 355 355 355 356 356 357 358 359 358 357 358 359 359 358 357 355 354 352 352 352 352 351 351 352 352 353 355 356 356 355 355 357 357 357 358 359 358 360 361 360 361 361 359 360 361 361 362 362 361 361 361 360 360 359 359 358 358 357 357 357 356 357 358 358 357 357 357 357 357 357 358 359 359
355 356 357 356 357 356 353 350 349 350 355 355 353 354 356 357 357 357 357 358 358 357 358 358 359 359 358 356 354 353 352 352 352 350 350 350 351 351 354 355 355 354 354 356 356 357 358 359 358 359 360 360 360 360 361 360 360 360 360 361 362 361 362 361 360 360 360 359 359 358 357 357 356 356 357 358 357 358 358 357 357 357 357 358 359
356 356 355 354 355 355 354 353 351 352 354 352 350 351 352 352 354 355 356 358 358 358 358 358 358 358 358 357 355 354 353 353 352 351 350 350 350 350 352 354 355 354 354 355 356 356 357 358 358 357 358 359 360 360 361 360 359 359 359 360 360 361 361 361 361 361 360 359 359 358 358 357 357 356 355 355 356 357 357 357 357 357 357 356 357
355 356 354 354 354 354 355 354 354 354 352 350 350 350 348 347 351 353 354 355 356 356 356 358 358 357 357 357 356 355 354 354 354 353 352 351 350 350 351 353 353 354 355 355 355 355 356 356 356 356 356 358 359 359 360 360 360 359 359 359 359 359 359 360 360 360 358 358 357 357 357 357 357 356 355 354 355 356 356 356 356 357 357 357 355
353 353 353 353 353 353 355 354 353 353 352 351 351 350 349 349 351 352 350 350 351 351 351 352 355 356 356 357 356 355 356 355 356 356 356 354 353 351 351 352 352 354 355 355 354 354 355 355 354 354 354 355 357 358 358 359 359 358 358 358 357 358 357 357 358 358 357 356 356 354 354 354 354 356 356 355 354 354 355 354 355 355 357 357 356
351 351 351 352 351 352 354 353 352 352 352 352 351 351 351 351 351 350 348 348 350 349 348 347 348 350 351 352 353 355 358 358 358 359 359 358 356 354 353 352 352 353 354 354 354 353 354 353 352 353 354 353 353 354 355 356 357 357 357 356 356 356 355 355 356 356 355 355 355 353 352 352 353 354 354 352 351 351 352 353 354 356 356 355 356
349 349 349 349 350 352 353 353 353 353 352 352 351 352 352 351 352 351 350 350 351 351 350 348 347 348 347 347 347 349 353 355 357 359 361 360 358 357 355 354 354 354 353 353 354 354 353 353 352 353 353 352 349 348 351 354 354 354 355 355 355 355 355 355 355 355 355 354 354 353 351 352 353 352 350 348 348 349 350 351 352 353 354 355 355
345 346 345 345 346 348 349 349 350 351 350 350 350 350 351 352 352 351 352 352 351 351 351 350 349 349 349 348 347 347 349 350 351 354 357 359 358 358 357 356 356 356 355 354 354 354 352 350 350 350 350 349 346 345 348 351 352 351 352 354 355 355 356 356 355 355 355 354 353 353 352 352 354 354 352 350 349 348 347 349 349 350 350 352 354
342 343 342 341 341 343 344 344 344 344 345 346 347 348 349 350 351 351 352 352 351 351 352 352 352 352 351 351 350 350 351 352 351 351 352 354 356 357 357 357 357 357 356 356 355 355 354 351 348 348 348 348 346 345 347 350 349 348 349 352 353 354 353 354 354 354 354 354 353 353 351 350 351 353 353 354 354 351 348 346 347 348 348 349 350
340 339 339 338 338 339 340 340 340 340 340 340 341 342 343 345 347 349 350 350 350 351 351 351 352 352 352 353 353 353 353 353 353 353 352 353 354 355 356 357 358 357 356 357 357 356 356 355 353 351 351 350 347 347 349 349 348 348 349 350 351 352 352 352 353 353 354 354 354 354 353 352 350 351 353 355 357 358 356 353 351 350 349 349 348
337 337 338 338 337 337 336 336 336 336 336 336 336 336 338 340 341 343 344 346 346 347 347 349 350 350 351 352 353 354 354 354 353 353 353 353 353 354 355 356 357 357 357 357 357 357 357 356 356 355 355 354 351 350 350 350 348 348 348 348 349 351 351 351 352 353 354 354 354 356 357 356 354 355 357 358 360 361 361 360 359 358 356 355 353
335 336 337 337 336 335 334 335 335 334 333 334 334 335 335 336 338 339 340 341 342 343 343 345 346 347 349 349 350 351 352 353 353 352 352 352 351 352 353 354 355 356 356 356 356 356 355 356 356 356 356 355 353 352 353 352 350 348 348 347 349 351 351 351 352 353 354 355 355 356 357 358 358 359 360 361 360 361 360 360 360 360 359 358 356
335 335 335 335 335 335 334 334 334 333 333 333 333 334 333 333 334 335 335 336 338 338 339 341 342 343 344 345 347 348 348 349 350 351 351 350 349 349 350 351 352 354 354 355 355 355 355 355 356 357 357 355 353 352 353 352 351 350 349 349 350 352 353 353 353 354 355 356 356 357 358 359 359 360 361 360 358 356 357 358 359 359 358 356 354
334 333 333 332 332 334 334 333 333 333 332 332 332 333 332 332 332 331 331 332 333 333 334 336 338 340 341 342 343 344 344 345 346 346 347 347 347 347 347 348 349 351 353 354 354 355 356 356 356 357 357 356 354 354 354 353 352 351 350 351 353 354 355 355 355 355 356 356 357 358 359 359 360 360 360 359 356 354 354 357 358 358 358 356 353
330 331 331 330 330 331 331 331 331 331 331 331 331 331 331 332 332 331 331 332 333 332 331 332 334 337 339 339 341 341 342 342 342 342 343 343 344 345 346 348 350 350 351 352 353 354 355 356 356 356 357 356 354 354 355 354 353 352 350 352 355 356 356 356 356 356 357 357 357 357 356 355 357 359 358 357 354 352 352 356 359 359 359 358 356
327 328 328 328 328 328 328 329 329 329 328 329 329 329 329 329 330 330 331 332 333 333 332 331 331 334 336 337 338 338 339 340 339 338 338 339 340 340 341 345 348 349 349 351 352 353 353 354 354 355 355 355 353 353 354 354 354 353 352 353 355 357 357 357 357 357 356 357 358 358 355 352 353 354 354 353 351 349 350 355 358 358 359 359 357
327 326 326 326 326 325 325 326 326 326 326 326 327 327 327 327 328 328 329 330 331 332 332 331 330 331 333 335 335 336 337 337 338 337 336 336 338 339 339 341 342 342 343 345 347 350 351 351 352 353 353 351 349 346 348 351 352 352 353 354 355 357 357 357 357 357 357 356 356 356 356 354 353 351 350 350 350 349 350 353 355 356 357 357 357
326 325 324 324 323 323 323 324 324 324 323 324 325 326 325 325 325 326 326 328 329 330 330 331 330 330 331 332 333 334 335 336 336 337 337 337 337 338 340 341 339 337 338 340 343 346 347 347 348 347 346 345 344 342 343 345 347 348 349 351 354 356 355 356 356 356 356 356 355 355 354 353 353 352 352 352 352 351 351 352 353 354 354 354 354
325 324 323 323 323 323 322 323 323 323 322 323 325 325 325 325 324 324 324 325 327 328 328 329 329 329 329 329 330 331 333 334 335 336 337 338 338 339 341 343 340 338 340 342 342 343 343 343 343 342 342 342 341 339 338 339 341 344 346 348 350 350 351 352 353 353 353 353 352 352 351 351 352 352 352 351 350 351 351 351 351 352 352 352 352
323 323 323 323 322 322 322 322 322 323 323 323 324 325 325 325 324 323 323 324 325 326 327 327 327 327 327 328 329 329 331 332 334 335 336 337 338 339 341 342 342 341 342 342 342 341 342 342 341 341 343 342 337 335 335 335 335 337 340 342 343 343 344 346 348 347 348 349 349 349 348 349 349 349 350 351 350 350 350 349 350 350 350 350 349
322 322 322 321 321 321 321 321 322 322 323 323 323 324 324 324 324 323 323 323 324 324 325 325 325 325 326 326 327 328 328 330 331 332 333 334 335 336 337 338 339 339 339 340 340 341 341 341 341 342 343 341 337 334 333 332 331 332 333 335 336 337 338 339 340 342 343 344 344 342 340 339 338 339 343 344 345 346 346 344 344 344 343 343 344
322 322 322 321 320 321 321 321 321 321 322 322 322 323 323 323 323 323 323 323 323 323 324 324 324 325 324 324 324 325 326 327 328 329 330 331 332 333 334 334 334 336 337 337 337 339 340 340 340 341 342 340 337 334 333 331 330 330 330 330 331 334 335 336 337 339 339 336 336 334 332 331 331 333 335 337 339 341 341 338 337 336 337 339 343
320 321 321 320 320 320 320 321 321 320 321 321 321 322 323 322 322 322 322 323 323 323 324 324 324 324 323 323 323 322 322 324 325 326 327 328 329 330 331 331 332 332 333 334 335 336 337 338 338 338 339 337 336 335 335 332 330 330 330 330 330 331 332 334 336 337 335 334 334 333 333 333 335 336 337 339 341 342 340 339 340 341 342 343 345
320 320 320 320 319 319 320 320 321 320 320 320 320 321 322 322 322 322 322 322 322 323 324 324 324 323 323 323 322 322 322 321 322 323 324 325 326 327 328 329 330 330 330 331 332 333 333 335 335 336 336 335 335 335 334 330 328 329 329 331 333 334 333 334 336 337 335 335 336 336 336 337 339 339 339 341 342 341 341 341 342 343 343 344 344
321 320 321 320 320 319 319 320 320 320 320 320 320 320 320 321 321 320 320 321 321 321 322 323 323 323 322 323 322 322 322 322 321 322 322 321 322 324 326 326 326 326 327 329 330 331 330 331 333 334 334 335 335 334 330 326 324 325 325 327 331 334 334 334 335 334 333 333 336 338 338 339 339 339 340 341 341 341 340 341 341 341 342 343 344
321 321 321 321 321 320 320 319 319 319 319 319 320 319 319 320 319 319 319 319 320 320 321 322 322 322 322 322 322 321 322 321 322 322 322 320 319 319 323 325 322 318 319 322 325 328 327 327 330 332 332 333 334 332 327 324 324 324 324 324 325 327 328 328 330 331 332 333 336 339 338 337 338 338 337 337 337 337 337 338 338 338 339 341 342
321 321 320 320 320 319 319 318 318 319 319 318 318 318 318 318 318 318 319 319 319 320 321 321 321 321 320 321 321 321 321 321 321 322 322 322 320 317 317 319 319 316 314 316 318 321 322 323 327 329 328 328 328 327 325 324 324 324 323 323 323 323 324 326 329 331 332 334 336 337 336 335 335 334 333 331 331 332 332 332 332 333 334 336 337
320 321 320 319 319 319 318 318 318 318 317 316 316 315 315 315 316 316 317 318 318 319 319 319 319 319 318 320 320 320 321 321 321 321 322 323 323 320 317 316 316 316 315 316 316 318 319 320 323 325 325 324 324 323 323 324 324 324 323 323 324 325 327 330 331 332 334 335 336 335 334 333 332 332 331 330 329 329 329 328 328 329 330 332 332
Wind_Speed
14 16 16 15 15 15 14 13 14 13 12 13 13 12 11 10 10 10 10 10 10 10 9 9 9 9 9 9 8 8 7 7 7 7 7 7 8 8 8 7 7 7 6 6 6 6 6 5 5 5 4 3 2 2 3 3 3 3 3 2 2 2 1 3 3 2 4 5 4 6 5 4 3 2 2 2 2 3 3 2 2 3 3 2 2
14 15 16 16 15 16 15 14 15 14 14 14 13 12 12 11 11 11 10 10 10 10 9 9 9 8 8 8 8 9 9 8 7 8 7 8 9 9 8 7 8 7 7 7 6 6 6 5 5 5 4 3 2 2 2 2 2 3 2 1 1 2 2 3 3 0 3 5 4 5 6 5 4 2 2 3 3 3 4 3 3 3 3 3 3
13 14 16 17 16 17 16 14 15 15 14 14 14 13 12 12 11 11 10 10 10 10 9 9 8 8 7 7 7 8 9 7 7 8 8 8 9 9 8 9 8 8 7 7 6 6 6 6 6 5 4 3 2 2 2 2 2 2 1 1 1 1 2 4 3 3 3 4 3 3 4 5 4 3 3 4 3 3 3 4 4 3 4 4 2
13 14 16 17 17 17 16 15 15 15 14 15 15 14 13 13 12 11 11 10 10 10 9 8 8 7 5 6 5 6 7 7 7 8 8 9 10 9 9 9 8 7 7 7 6 6 6 6 5 5 4 3 2 2 1 2 1 0 1 2 2 1 2 4 4 4 5 3 1 2 2 3 3 4 5 4 4 5 4 4 4 3 5 4 1
13 14 15 17 18 17 16 15 15 15 15 15 15 15 14 14 14 13 11 10 10 10 10 8 8 8 7 6 6 5 6 7 7 8 8 9 9 9 9 9 8 7 8 7 7 7 7 6 5 4 4 3 3 2 2 2 1 1 0 1 2 2 2 3 4 4 6 5 3 2 1 2 2 2 4 3 3 5 5 5 4 3 5 3 0
13 14 15 17 18 18 17 16 16 16 15 15 15 15 14 14 15 14 12 11 10 11 11 9 9 10 8 8 8 7 7 7 8 9 9 8 8 9 9 9 8 8 7 7 7 8 7 6 5 4 4 4 3 2 2 2 2 2 1 1 1 3 3 2 3 4 5 4 4 4 3 3 3 2 2 2 3 4 4 6 4 2 4 4 2
13 13 15 17 18 19 18 17 17 16 15 15 15 15 15 15 15 15 13 11 10 11 12 11 10 10 9 8 8 8 7 7 6 7 8 7 7 8 8 8 8 7 7 7 7 7 7 6 5 4 4 4 3 3 3 3 2 2 0 1 1 2 3 1 1 3 3 2 2 4 3 4 4 4 3 2 2 3 2 4 5 4 3 3 2
13 13 14 16 18 19 19 18 17 16 15 14 14 15 16 15 16 16 14 12 11 11 12 12 11 10 10 9 8 7 7 8 7 6 7 7 6 7 7 7 7 7 7 8 8 7 6 5 5 4 4 4 4 4 3 2 1 2 1 0 1 1 2 1 1 1 1 2 2 2 2 3 2 4 4 2 1 2 2 3 4 4 3 3 2
14 14 15 17 19 19 19 18 18 17 15 14 14 15 16 16 16 16 15 13 12 12 13 13 11 11 10 9 8 7 6 7 7 7 6 6 6 6 6 6 7 6 6 7 7 7 6 5 5 5 5 4 4 4 3 2 2 2 2 1 1 0 0 1 1 2 2 1 2 2 2 1 1 1 2 2 2 1 2 3 3 3 3 3 1
14 14 16 18 19 20 19 19 19 17 16 15 14 14 16 17 17 17 16 14 13 13 13 14 13 11 11 9 8 7 6 6 6 6 6 6 6 6 6 5 6 6 6 6 7 7 6 6 6 5 5 5 4 4 3 3 3 3 2 2 1 1 0 1 1 1 2 2 1 1 2 1 1 1 0 2 2 1 1 1 2 1 2 3 1
14 14 16 19 19 19 19 19 19 17 16 16 15 15 16 17 18 18 17 15 14 14 14 14 14 13 12 10 9 8 7 6 6 6 6 6 6 6 6 6 6 7 7 7 7 7 7 6 6 5 5 5 4 4 4 4 4 4 3 2 2 2 1 1 2 2 2 3 2 1 3 2 1 1 1 2 1 1 2 2 1 2 2 1 2
13 13 15 17 18 19 20 19 18 17 16 16 16 15 15 16 18 18 17 16 15 15 15 15 15 14 13 12 11 10 8 7 6 6 7 7 7 6 6 6 6 7 7 7 7 8 7 6 6 5 5 5 4 4 3 3 3 3 3 3 3 2 2 2 2 3 2 3 4 3 4 3 2 3 2 1 1 2 3 4 1 2 3 0 2
12 13 14 14 16 19 20 19 17 17 17 17 17 17 16 16 18 18 18 17 16 15 16 16 15 14 14 13 12 11 9 8 7 7 7 7 7 7 7 7 7 7 8 8 8 8 7 7 6 6 5 4 4 3 2 2 2 2 3 3 3 3 3 2 2 3 3 4 4 3 4 4 3 3 4 3 2 1 3 5 3 3 5 2 1
12 13 14 14 16 19 19 18 17 17 18 18 17 17 17 17 18 19 18 18 17 16 16 16 16 15 14 13 12 12 11 10 9 8 8 8 7 7 7 7 7 7 8 7 7 7 7 7 6 6 5 4 4 3 2 2 2 2 3 3 3 3 3 3 3 4 3 4 5 4 4 5 4 3 4 4 4 4 4 4 3 5 7 5 3
14 13 15 15 18 19 18 18 18 18 19 18 17 17 17 17 18 19 18 18 18 17 17 16 16 15 15 14 13 12 11 11 10 9 8 8 8 7 7 6 6 6 7 7 7 7 7 7 6 6 5 5 4 4 3 3 4 4 3 4 4 3 3 3 3 4 4 4 4 4 5 5 4 4 4 5 5 4 4 4 4 4 5 6 5
15 14 15 17 20 20 19 19 19 19 18 17 17 18 18 17 18 19 19 19 19 18 18 17 16 15 15 15 14 13 12 11 10 9 9 9 8 8 7 7 6 6 6 7 7 7 7 7 7 6 6 5 5 4 4 4 4 5 4 4 5 4 3 3 3 4 4 4 5 5 5 5 5 4 5 5 4 4 4 4 4 5 4 4 5
15 14 14 17 19 19 19 19 19 18 17 17 17 18 19 18 19 19 19 18 18 19 18 17 16 16 15 15 15 14 13 13 12 11 11 10 9 9 9 8 8 7 7 7 8 7 8 8 7 7 6 6 5 5 6 5 5 5 5 5 5 4 3 3 4 4 4 4 5 5 5 6 5 5 6 5 3 4 5 5 5 5 4 4 4
14 14 14 16 18 19 19 18 17 17 17 17 18 18 18 19 19 20 20 19 19 19 19 18 17 16 16 16 16 15 14 14 13 12 12 12 11 10 10 9 9 9 8 7 8 8 8 9 9 8 7 7 6 6 6 6 6 6 5 5 5 4 3 4 4 5 5 5 5 5 5 6 6 6 6 6 4 4 5 6 5 5 4 5 6
12 12 11 12 15 16 15 15 15 15 16 16 17 17 17 17 18 19 19 20 19 18 18 18 17 16 16 16 16 16 15 14 13 12 12 13 12 11 11 10 10 10 9 9 8 9 9 10 10 10 9 8 7 7 7 7 7 6 6 6 6 5 4 5 5 6 5 5 5 5 5 6 6 6 6 6 5 5 6 6 6 5 5 6 7
12 11 10 11 13 14 12 11 12 13 13 14 15 16 16 16 16 17 17 18 18 18 18 18 17 17 16 15 16 16 16 15 14 13 13 13 12 12 11 11 10 10 11 11 10 10 10 10 11 10 10 9 8 8 7 7 7 7 6 6 5 5 5 6 6 6 6 5 5 6 6 6 6 6 6 6 6 6 6 7 7 6 7 7 7
12 12 11 11 12 13 11 10 10 11 12 13 13 14 14 14 14 15 15 16 17 17 17 17 17 17 16 15 16 16 16 16 16 15 14 13 13 12 12 11 11 11 11 11 11 11 11 11 10 10 10 9 9 8 8 8 7 7 7 6 5 5 6 6 6 7 6 6 6 6 7 6 6 7 7 7 7 6 7 7 7 7 7 7 6
12 13 11 11 12 11 11 10 9 10 12 12 13 14 14 14 14 14 15 15 16 16 16 15 15 16 16 16 16 15 15 15 16 16 16 15 14 13 12 12 11 12 12 12 12 12 11 11 10 10 10 10 9 9 9 8 8 7 7 7 7 7 7 7 7 7 7 7 6 7 7 7 7 7 7 7 7 7 7 7 6 6 7 7 6
11 12 11 12 13 12 12 11 10 10 11 12 12 12 14 14 14 14 15 15 15 15 15 14 14 15 16 16 15 15 15 15 16 16 17 16 15 14 13 13 12 12 12 12 12 12 11 11 10 9 9 10 10 10 9 9 8 8 7 7 7 7 7 7 8 7 7 7 7 7 7 7 7 6 7 7 7 7 7 7 7 7 7 8 7
11 11 11 14 15 14 14 14 11 8 8 10 10 9 10 12 14 14 15 15 15 15 15 14 14 14 15 15 15 14 14 15 15 16 16 16 16 15 14 14 14 13 12 12 12 11 11 11 10 10 10 10 10 10 10 10 9 9 8 8 7 7 7 7 7 7 7 7 7 7 7 7 6 6 7 7 7 6 6 6 7 7 7 8 8
11 11 12 14 14 12 11 14 14 9 6 8 10 10 10 10 11 12 13 14 15 15 15 15 14 14 14 14 15 14 14 14 14 14 15 16 16 15 14 14 14 14 13 12 12 11 11 11 11 10 10 10 10 10 10 10 10 9 9 8 8 7 8 7 8 8 7 7 8 8 7 7 7 7 7 7 7 6 6 7 7 7 7 7 7
10 11 12 13 13 11 9 11 14 12 10 10 10 11 12 12 10 9 10 12 13 14 14 14 14 14 14 14 14 14 13 14 14 14 14 14 15 15 14 14 14 14 14 13 12 12 12 11 11 10 10 10 10 10 10 10 10 9 9 9 8 8 8 8 8 8 8 8 8 8 8 8 8 8 8 8 7 7 7 7 7 7 7 8 8
7 7 8 11 11 11 10 10 11 12 12 13 14 15 16 16 13 11 12 12 13 15 15 13 13 14 14 14 14 14 13 13 13 13 13 13 14 15 14 14 14 14 15 14 13 13 12 12 11 11 10 10 10 10 10 10 10 9 9 9 9 9 9 8 8 8 8 8 9 9 9 9 9 9 9 8 8 8 8 8 8 8 8 8 9
7 6 6 8 9 9 11 11 10 11 11 12 14 16 17 17 16 16 18 18 16 17 18 16 15 14 13 13 13 13 13 13 12 11 12 13 13 14 14 13 13 14 15 15 14 13 13 12 12 12 11 11 11 11 11 11 11 11 10 10 10 10 10 9 9 9 9 9 9 9 9 9 9 9 8 8 8 8 8 8 8 8 8 9 10
8 8 6 6 6 7 10 12 12 13 13 13 14 14 14 16 17 19 21 21 19 19 20 20 20 19 18 16 14 13 12 11 11 12 12 12 13 13 14 14 14 14 14 14 14 14 14 13 13 12 12 12 12 12 12 12 12 11 11 11 10 10 10 10 9 9 10 10 10 10 10 9 9 9 10 11 11 10 11 11 10 10 10 10 10
9 9 8 8 7 7 7 8 10 12 14 15 14 15 15 14 15 17 18 19 19 19 20 21 22 23 23 22 20 19 17 15 13 13 12 13 13 14 14 15 14 14 13 13 14 14 15 14 13 13 13 14 14 13 13 14 14 12 10 10 10 10 10 10 10 10 10 11 11 11 11 10 10 12 13 12 11 12 12 13 13 12 12 12 12
9 9 9 9 10 10 10 9 7 7 8 9 9 11 14 15 15 15 15 16 18 18 19 20 21 21 22 23 23 23 22 21 20 18 16 15 14 14 14 14 14 14 14 14 14 15 15 15 14 14 14 14 14 14 15 16 16 14 12 11 11 11 11 11 11 11 11 11 11 11 11 11 12 12 12 10 10 11 11 11 12 13 13 14 14
10 9 9 9 9 10 11 11 11 11 9 7 7 5 6 8 11 13 15 15 17 17 18 19 19 18 17 19 21 20 19 19 20 21 21 19 16 15 15 14 14 14 14 14 14 14 15 15 15 14 14 14 14 13 15 16 15 15 14 12 11 12 12 12 12 12 11 11 11 11 12 12 11 10 10 10 11 11 11 11 11 12 13 14 15
10 10 10 10 10 11 12 12 12 13 12 10 10 10 8 7 5 5 8 10 10 11 12 13 14 15 15 16 17 16 16 18 18 19 21 21 19 17 16 16 15 14 15 15 15 14 13 13 13 13 13 13 13 13 14 15 15 15 14 13 12 12 12 12 12 12 11 11 11 11 11 12 11 10 11 11 11 11 11 11 11 11 12 13 14
11 10 10 11 11 12 13 14 15 16 15 15 15 14 12 10 10 9 8 7 7 6 4 4 5 8 10 12 13 13 13 15 17 17 18 19 18 17 17 16 15 15 15 15 15 15 14 13 13 13 13 14 13 13 14 14 14 14 13 13 12 12 13 13 12 12 12 12 12 12 11 11 11 10 10 11 10 9 9 10 10 11 12 13 14
11 10 12 13 13 12 11 13 15 16 16 16 17 17 16 15 14 14 12 11 10 10 8 7 6 4 2 4 6 9 10 11 14 16 17 17 17 17 17 16 14 14 16 16 15 15 14 14 14 13 14 14 14 14 14 14 14 13 13 13 13 13 13 13 13 13 13 13 13 13 13 13 12 11 10 11 10 9 9 10 11 12 13 13 14
12 11 12 13 12 12 11 11 13 14 14 14 14 15 16 17 18 19 18 17 16 14 11 9 8 7 6 5 4 3 3 4 8 12 15 17 18 19 19 18 16 15 15 14 14 14 13 14 13 13 14 14 12 12 13 14 14 14 14 13 13 13 13 13 14 14 13 13 13 13 13 13 13 11 11 13 13 11 10 12 13 13 14 15 16
15 14 14 12 12 13 12 12 13 13 13 12 12 12 14 15 17 19 18 17 17 16 13 12 10 9 8 7 6 5 4 2 2 4 5 8 13 16 17 19 19 18 16 14 13 12 11 11 12 12 13 11 8 9 12 13 15 16 14 12 11 12 13 14 14 14 13 13 12 12 12 12 11 11 12 14 15 13 11 11 13 14 15 16 17
14 14 14 13 12 13 13 12 13 14 13 12 11 11 13 13 13 14 14 14 14 13 13 13 12 10 9 8 7 7 6 6 5 6 7 5 3 5 10 14 15 14 13 13 13 11 10 10 10 10 10 9 8 10 10 10 12 14 13 12 11 12 13 13 13 13 12 12 11 11 13 12 10 11 14 15 15 14 11 11 12 13 14 15 16
14 14 14 13 12 12 12 12 12 13 12 11 11 12 12 11 11 11 12 12 12 11 11 12 12 11 10 10 9 8 7 7 6 7 9 10 9 8 6 8 8 7 6 8 9 9 9 9 8 8 9 8 6 6 6 7 9 11 12 11 11 11 12 12 12 12 11 10 9 9 12 13 11 12 14 14 13 12 10 9 10 12 13 13 13
15 15 14 13 12 12 12 12 11 11 10 10 11 12 11 11 10 10 11 12 11 10 10 10 11 11 11 11 11 10 9 8 7 6 7 8 9 9 9 7 5 4 4 5 7 8 7 7 6 5 5 4 3 3 2 2 5 8 9 9 10 10 11 11 11 11 10 10 9 8 9 10 10 10 10 11 11 11 10 10 10 11 12 13 12
15 15 14 13 11 11 11 11 9 9 9 9 11 12 11 10 10 10 11 10 9 9 10 11 11 11 11 12 12 11 10 9 8 7 6 6 6 6 6 6 6 5 4 3 3 5 5 4 5 5 4 3 3 2 3 3 2 4 5 5 6 8 9 9 9 10 9 10 9 7 6 7 7 7 10 12 14 14 14 13 12 13 15 17 17
12 12 12 11 11 11 11 10 9 8 9 9 10 11 10 9 10 10 9 8 8 9 10 10 11 11 12 12 12 11 10 10 10 9 8 7 6 5 6 6 6 6 7 7 6 5 3 2 2 2 1 1 2 2 1 1 1 2 2 1 2 3 5 6 7 7 7 7 8 6 3 4 7 11 13 15 15 14 14 14 13 14 16 17 18
9 9 10 10 10 10 10 9 9 9 9 9 10 11 10 9 9 9 7 7 7 8 9 9 10 11 10 10 11 11 10 10 10 10 10 9 8 7 7 8 8 8 9 9 8 7 7 5 3 3 4 4 4 4 4 3 2 2 2 1 1 1 1 2 3 4 4 6 7 6 5 6 10 13 14 14 13 12 12 13 14 14 15 16 17
8 7 7 7 9 10 10 10 9 9 9 9 9 10 9 9 8 7 7 7 7 7 7 8 8 8 8 9 9 10 9 9 10 10 10 10 10 9 9 8 8 8 8 8 7 6 6 6 6 6 7 6 5 5 5 5 4 4 5 4 4 4 4 3 4 5 6 8 8 8 8 9 11 12 12 12 12 12 13 14 15 16 16 16 15
8 7 5 6 8 10 10 10 10 10 9 8 8 9 9 8 7 6 6 7 7 6 7 7 7 7 7 7 7 8 8 8 8 9 9 9 9 9 9 8 8 8 8 7 6 5 4 5 6 7 7 6 6 5 5 6 5 5 6 7 7 6 5 4 4 4 7 8 8 7 9 10 12 12 13 13 12 12 13 13 12 12 12 11 10
11 8 6 6 8 10 11 11 10 9 8 8 7 7 8 7 6 6 6 6 6 6 6 6 6 6 6 6 6 6 7 7 7 7 8 8 8 8 8 8 7 7 7 7 6 4 3 4 5 5 5 4 4 3 4 4 5 6 7 7 8 8 7 5 4 4 6 8 8 7 8 9 9 9 9 8 7 7 9 9 8 7 7 7 8
12 10 8 6 8 10 11 10 8 7 7 7 6 6 6 6 5 6 6 6 6 6 6 5 5 5 6 6 6 6 6 6 6 6 6 6 6 6 6 6 6 6 5 5 4 3 3 3 3 2 2 2 2 2 3 5 6 7 7 7 7 7 7 6 5 4 5 7 8 8 7 6 6 6 5 5 4 5 6 7 6 6 6 7 7
10 9 7 7 9 10 9 7 6 6 6 6 6 6 6 6 6 6 6 6 5 5 5 5 5 5 5 5 6 5 5 5 6 6 6 7 6 5 5 6 6 5 4 3 2 2 3 3 2 2 1 1 1 2 4 6 7 8 8 9 7 6 5 5 4 4 4 5 6 6 5 4 4 5 5 5 4 5 5 6 6 6 6 6 5
7 6 5 7 9 9 8 7 6 5 5 5 5 6 6 6 6 5 5 5 5 4 4 4 4 5 5 4 4 5 5 5 5 5 6 7 7 6 5 5 6 5 3 2 2 2 3 3 3 3 3 2 3 3 5 6 7 8 9 10 9 8 7 7 6 5 4 4 5 6 5 3 3 4 4 3 3 4 5 5 5 6 7 6 6
4 4 6 7 7 7 7 6 6 5 4 5 5 5 6 6 6 5 5 5 4 3 3 4 4 5 5 5 4 5 5 5 5 4 4 5 6 6 5 4 4 4 3 2 0 1 2 2 2 2 3 3 2 3 4 5 6 7 8 9 10 10 10 8 7 5 4 4 5 5 3 2 3 3 2 2 2 2 3 4 5 5 6 6 6
5 5 6 6 6 7 7 6 5 5 5 5 5 5 6 6 6 6 5 5 4 4 4 4 5 6 6 6 5 5 5 5 5 5 4 2 3 4 4 4 4 4 3 2 1 0 1 1 1 1 1 2 2 3 4 5 5 6 7 8 9 9 9 8 5 4 5 6 6 5 3 2 3 3 2 3 3 3 4 5 5 5 5 5 5
Wind_Direction
171 173 175 174 172 168 168 170 171 171 173 174 176 178 175 174 170 168 172 167 164 164 165 170 170 170 172 170 167 168 168 168 168 165 161 159 161 169 173 173 173 170 167 162 159 157 152 151 151 141 133 130 114 92 85 83 74 57 44 27 49 67 61 73 68 81 113 116 135 131 119 116 119 140 175 169 165 160 155 153 150 144 137 136 132
173 172 176 176 172 170 169 171 173 172 173 176 179 180 179 179 175 173 175 174 173 171 171 177 177 176 175 174 169 162 163 168 167 165 157 155 162 166 167 170 167 165 166 164 163 162 159 158 155 147 140 133 120 100 87 88 72 44 29 13 66 80 60 58 53 58 120 115 135 138 129 116 107 130 134 137 150 148 150 150 152 154 133 118 122
178 176 178 177 173 173 172 174 177 176 176 179 181 181 180 182 180 178 178 178 179 175 175 179 179 179 173 170 165 154 158 161 152 154 151 150 157 160 163 166 163 163 168 167 166 167 166 164 161 154 147 142 136 116 102 104 79 26 24 21 18 83 99 79 47 12 72 111 139 139 141 125 112 117 100 100 126 136 151 148 146 142 119 113 129
181 181 181 180 178 176 175 176 179 180 181 183 184 183 183 184 184 183 181 181 183 179 178 177 175 174 165 159 154 139 146 148 143 149 151 149 153 158 163 164 161 165 170 169 171 173 169 167 164 159 156 155 149 133 140 145 138 207 26 6 344 30 88 95 79 50 54 76 147 132 153 131 111 118 103 87 114 131 143 135 134 136 118 118 138
184 185 183 182 181 178 177 178 180 182 184 185 186 186 185 185 184 185 185 184 186 183 178 173 171 171 163 156 153 141 144 152 157 156 155 156 158 159 163 165 165 167 171 173 174 175 174 175 172 166 166 166 170 169 163 159 161 195 246 341 348 29 49 87 95 79 64 51 43 76 113 92 65 77 89 61 71 113 125 118 124 138 119 114 79
188 189 185 183 182 180 179 180 183 184 186 188 188 188 187 184 183 186 186 186 187 184 179 173 172 174 170 164 164 162 160 163 165 159 158 161 158 155 158 164 166 167 172 175 174 176 178 182 182 180 178 175 180 179 172 185 185 187 224 325 20 38 35 68 106 100 82 68 69 73 58 54 39 9 62 84 58 73 111 124 128 137 122 125 142
190 190 189 185 182 182 181 183 186 185 185 187 187 188 187 184 184 185 187 189 187 184 180 178 178 179 179 175 170 170 167 163 160 152 151 154 146 147 154 160 164 166 168 171 173 177 181 186 190 192 191 185 186 186 190 199 179 164 224 344 18 40 36 29 105 107 105 96 80 84 69 53 48 29 36 110 104 70 93 126 124 130 137 132 133
190 189 192 189 185 186 185 186 189 188 184 185 186 186 185 185 185 184 187 189 188 185 183 183 184 183 184 181 176 177 170 159 157 149 143 146 144 147 154 157 162 164 164 168 173 178 184 190 193 196 199 195 192 196 200 202 165 154 176 38 358 10 39 23 13 29 117 112 67 44 67 68 65 57 48 32 51 112 130 114 108 121 125 99 84
193 190 192 191 189 190 189 188 192 189 183 185 186 184 183 185 186 186 188 189 189 186 186 190 190 186 187 185 182 183 175 163 164 159 149 150 150 151 154 157 165 169 168 172 176 182 189 193 198 202 207 205 203 208 203 194 179 170 185 187 182 290 5 14 10 342 332 72 77 6 3 23 29 75 94 74 35 61 121 117 115 136 122 87 42
197 195 193 192 192 194 193 192 193 189 185 187 187 183 182 184 186 189 190 190 191 189 189 193 193 191 192 192 188 185 181 174 171 166 162 163 162 163 165 166 175 180 181 183 184 189 194 199 207 208 210 212 209 214 207 195 189 184 191 189 170 182 245 304 301 313 338 345 10 359 328 315 343 338 17 70 58 355 296 159 139 149 128 103 32
195 197 194 194 195 195 195 195 193 189 187 186 187 185 183 183 186 190 192 192 192 191 192 195 195 196 197 197 196 192 188 185 183 183 180 180 181 178 178 182 186 189 191 192 194 196 200 206 213 213 214 217 215 216 212 202 194 188 186 179 174 192 216 272 296 287 298 305 296 269 261 263 237 264 324 21 348 332 316 285 88 10 320 109 73
193 197 196 194 195 196 197 196 192 190 188 186 189 189 185 184 185 188 193 194 194 194 194 196 197 199 201 201 202 198 196 194 194 198 194 194 197 192 187 188 193 198 199 198 200 199 200 204 212 215 217 220 220 220 217 212 202 189 184 187 185 189 216 234 259 275 275 274 276 267 260 266 267 271 266 244 311 7 324 291 331 350 289 284 45
193 195 196 195 196 196 197 196 190 190 191 189 191 192 187 186 186 188 192 195 196 196 197 198 198 199 201 202 203 202 202 201 199 202 201 201 204 201 198 197 199 203 205 206 205 200 199 202 204 209 213 218 224 224 217 217 220 207 200 209 207 198 216 233 240 258 266 270 276 281 277 274 269 280 286 274 258 238 263 277 312 308 277 269 333
199 194 194 194 197 197 197 195 190 191 194 192 193 193 190 187 187 189 192 194 197 198 198 200 201 201 201 201 203 203 203 204 203 204 204 204 208 208 208 207 207 209 210 210 207 203 202 202 200 203 206 208 218 223 213 212 227 234 232 231 225 215 226 236 238 244 246 253 266 272 274 281 288 288 288 282 273 262 267 286 317 302 286 281 269
200 194 192 191 194 196 193 192 193 195 196 194 194 192 189 187 186 189 192 194 197 199 200 201 203 203 202 201 203 205 205 206 207 207 206 207 212 213 215 217 216 214 213 210 208 206 204 202 201 203 203 206 214 217 213 215 222 229 240 247 241 231 232 238 239 244 241 236 244 255 262 271 283 286 284 285 289 294 303 317 321 307 298 295 286
196 194 192 189 192 195 192 192 196 197 197 196 192 190 189 186 184 188 193 195 197 199 201 203 204 205 205 204 205 206 208 209 209 209 210 211 214 216 219 223 222 218 214 210 208 207 207 206 206 205 203 207 210 211 216 218 218 224 228 235 243 237 229 241 248 248 249 241 234 238 247 254 263 278 287 289 297 305 310 313 305 304 310 304 299
191 194 193 189 191 193 192 194 197 198 199 197 191 189 188 186 185 187 192 196 199 201 203 204 204 206 207 207 208 209 210 212 211 211 212 214 216 219 221 221 221 220 215 209 204 205 208 206 207 208 205 209 208 208 217 217 218 229 225 223 239 243 234 246 258 257 253 248 240 232 236 247 252 259 269 273 281 291 292 290 288 297 309 305 304
187 190 192 190 190 193 194 197 199 200 200 196 191 190 190 190 189 188 191 196 200 202 204 205 205 207 208 208 210 211 212 215 216 215 215 215 215 218 221 219 217 217 214 209 202 201 204 203 205 207 204 208 210 207 209 210 216 226 225 229 239 242 246 248 252 257 254 251 251 247 246 250 251 252 257 261 262 267 274 277 280 287 292 294 302
179 181 183 183 183 183 186 193 196 197 197 194 191 191 193 194 194 194 195 198 201 203 204 205 205 207 208 209 210 211 213 216 218 218 216 216 217 218 218 217 214 213 211 209 205 203 202 200 202 204 204 206 208 208 206 204 211 218 224 233 226 219 239 248 248 251 249 245 247 251 254 256 258 260 263 266 264 265 270 274 275 278 280 284 292
179 177 170 169 168 164 168 185 189 189 191 189 189 192 194 194 195 197 197 196 201 204 204 205 206 208 208 208 209 211 213 216 218 219 217 216 219 220 218 215 213 211 207 205 208 208 204 201 200 202 204 203 202 206 206 203 208 213 224 235 217 206 231 243 247 249 247 245 248 251 254 256 260 262 263 266 264 262 266 270 273 275 276 276 279
182 178 168 156 149 149 160 180 186 186 188 187 188 190 189 190 191 193 193 194 199 204 205 206 207 208 209 209 211 212 214 217 217 217 217 217 219 220 220 217 212 210 208 205 206 208 206 205 204 202 202 200 196 198 200 200 205 209 219 232 221 215 233 241 243 247 248 249 249 252 256 256 259 261 262 266 265 263 260 260 263 266 270 274 271
177 176 169 145 133 142 159 175 182 183 185 184 185 185 185 187 188 188 189 191 197 201 204 206 207 209 210 211 213 213 213 217 218 218 218 218 218 217 219 220 216 212 210 209 208 207 205 205 205 203 201 198 193 196 201 200 204 210 218 229 224 219 229 236 238 241 245 248 248 251 256 255 253 254 259 265 265 266 266 264 265 266 271 276 274
173 175 168 145 134 139 148 160 172 180 185 186 184 184 186 187 186 187 189 190 194 197 199 202 206 209 211 213 216 216 215 215 218 219 220 219 217 215 216 220 220 216 212 212 212 208 202 202 205 202 199 200 197 200 205 203 204 212 218 228 229 223 229 235 236 238 240 243 244 248 252 253 253 254 259 266 270 271 275 278 278 279 280 283 286
170 167 158 142 137 139 144 154 166 177 180 173 168 173 184 189 189 191 191 190 191 194 196 199 203 207 212 216 218 218 218 218 219 220 220 220 220 216 214 217 221 220 214 211 212 210 203 201 205 203 201 205 203 203 207 206 207 212 217 225 227 226 232 237 239 242 243 242 244 248 252 254 255 260 262 266 270 272 276 278 278 279 281 282 286
165 161 154 146 142 144 148 159 171 176 165 154 156 163 173 182 188 191 193 191 188 190 192 196 201 206 211 217 220 220 220 220 221 221 220 219 220 219 215 214 218 220 215 209 208 208 205 204 209 208 206 208 209 209 210 211 212 213 215 220 223 224 230 236 240 243 244 245 248 250 252 251 250 253 257 260 264 270 275 277 278 279 281 282 284
167 166 165 160 157 157 154 160 168 172 174 178 182 185 188 191 191 192 194 192 187 186 189 194 199 202 206 212 218 220 220 221 222 224 223 219 219 220 217 214 215 217 217 212 207 205 205 207 210 210 209 209 212 214 216 217 219 218 218 220 222 224 228 234 239 241 242 244 246 249 251 251 249 250 255 260 263 266 268 271 276 279 280 281 280
153 156 168 173 176 177 171 165 163 165 175 188 193 198 206 208 206 204 201 196 192 188 186 187 192 197 201 206 213 217 220 221 221 223 226 223 220 219 218 217 216 216 216 215 212 208 206 207 210 212 213 211 213 217 219 223 225 225 224 226 228 228 229 232 236 240 244 244 246 250 249 247 247 250 256 260 261 264 266 268 271 274 275 278 280
115 118 143 164 176 183 179 173 172 172 176 186 192 197 203 204 202 207 211 210 208 203 196 192 193 198 199 200 207 215 217 219 221 224 226 226 224 221 220 221 219 218 218 218 218 214 210 210 212 215 216 215 215 218 221 224 228 230 230 230 232 234 234 235 236 238 243 246 249 251 250 249 249 249 254 262 266 268 272 273 273 273 273 274 277
112 113 124 139 154 174 180 177 176 177 177 182 188 191 194 196 198 206 213 214 215 215 215 214 214 218 218 214 214 215 214 214 217 220 223 225 227 225 221 220 219 219 220 220 222 222 218 216 216 216 220 221 221 222 222 221 222 227 231 234 235 237 239 240 241 242 243 245 247 249 250 249 246 247 255 266 269 268 269 273 275 277 277 278 278
103 98 96 97 104 120 145 160 169 176 181 184 187 187 188 191 195 202 207 210 212 215 220 223 223 226 227 226 224 224 224 225 222 219 218 221 225 226 223 219 216 217 221 223 225 226 225 223 221 220 222 226 228 228 224 219 217 221 232 240 240 241 244 246 248 249 249 249 248 250 252 250 250 257 264 269 269 266 265 267 270 272 274 276 279
94 93 90 89 90 94 100 106 118 139 160 170 178 191 198 197 200 203 203 206 210 211 214 218 220 223 225 225 226 227 229 232 233 230 224 221 220 221 221 219 215 214 218 220 222 226 229 230 230 229 229 230 232 231 226 225 224 224 229 239 244 244 245 246 248 249 250 252 252 253 254 251 250 257 265 272 274 272 269 267 267 267 266 266 268
98 97 92 90 90 93 94 92 89 87 90 103 117 140 179 190 199 209 210 211 214 214 214 215 216 217 220 222 224 226 227 229 231 232 231 226 219 216 216 216 215 214 214 217 219 224 229 232 234 235 234 234 234 231 228 230 230 226 226 233 242 245 245 245 246 247 249 252 253 255 256 255 252 252 256 263 270 273 274 274 270 268 266 264 262
104 104 100 98 93 90 90 87 84 82 78 79 85 88 88 91 111 163 189 195 202 208 212 216 218 220 222 222 220 220 221 224 226 226 225 221 216 215 215 215 215 214 213 215 217 219 223 227 232 236 237 238 238 234 232 234 233 230 230 234 239 244 248 249 249 250 251 253 254 256 258 258 257 253 252 254 256 259 266 275 277 277 274 270 267
104 105 104 101 96 91 90 88 87 86 87 85 83 84 87 88 90 92 100 115 120 119 131 162 202 221 226 222 217 218 222 224 223 221 218 216 216 217 216 215 216 214 213 216 218 219 219 220 224 230 234 238 239 236 237 239 237 233 233 236 239 242 247 251 252 254 254 255 257 257 256 256 255 250 247 247 248 248 253 261 267 269 267 268 271
105 104 104 103 102 98 95 96 95 93 92 93 93 96 97 97 102 102 96 96 100 94 90 94 95 94 138 192 206 217 225 224 223 223 221 221 224 225 221 218 218 216 216 220 223 222 222 223 225 228 232 238 241 240 239 240 240 239 239 241 243 245 247 250 252 254 256 258 258 258 258 257 255 251 245 240 240 244 251 256 257 258 259 260 262
110 105 100 98 101 102 97 96 99 98 95 96 99 104 102 99 100 101 99 100 101 96 88 87 89 88 89 96 123 170 205 224 223 222 220 222 227 232 232 231 229 225 221 221 224 226 224 224 225 227 233 239 239 234 232 235 240 243 244 245 247 248 249 251 252 253 254 257 258 259 260 259 258 257 251 247 247 247 250 254 257 257 260 262 261
111 107 100 94 95 98 96 94 96 96 93 92 94 96 96 95 94 94 94 94 92 89 85 84 83 83 89 95 98 103 98 96 177 193 200 213 220 225 231 234 234 229 221 213 214 219 223 226 229 230 233 235 230 225 230 239 244 245 243 239 240 244 247 250 252 254 255 257 259 258 259 263 267 265 259 256 257 256 251 250 253 256 261 264 266
109 107 102 94 92 95 97 98 96 93 88 86 85 86 86 85 86 88 89 84 78 77 79 79 75 71 76 84 87 90 90 88 97 98 89 90 138 193 207 217 221 220 213 206 205 207 212 217 222 225 226 224 225 233 241 247 251 250 243 234 234 240 244 247 250 252 252 253 254 253 256 261 266 263 259 259 262 264 260 253 253 258 260 263 268
112 108 101 94 92 94 95 93 91 91 90 84 81 80 80 79 80 84 85 79 72 69 69 70 70 70 72 76 79 83 86 85 87 93 92 85 74 75 112 163 184 184 173 174 179 185 197 207 214 228 231 222 220 236 245 245 249 250 243 235 235 240 243 246 250 251 250 248 247 255 263 266 262 256 257 263 269 271 266 261 262 264 264 267 274
113 107 102 97 94 94 92 87 83 86 89 86 81 78 75 75 76 75 75 72 67 65 66 65 66 68 69 71 74 76 78 77 76 78 86 93 90 80 86 109 126 114 102 117 135 143 158 175 176 170 168 150 108 50 1 274 247 248 242 233 235 243 247 248 250 251 252 251 248 247 253 257 259 261 266 275 281 280 273 270 271 272 274 278 281
111 108 105 102 98 93 90 86 82 81 81 78 78 76 71 68 70 70 70 69 66 65 67 66 64 63 61 64 70 74 74 75 75 73 71 82 97 95 93 102 103 93 90 109 144 146 141 147 149 138 119 98 79 42 7 350 305 282 272 250 246 257 260 259 260 258 256 259 262 256 241 242 259 278 285 286 286 282 277 272 268 268 270 270 271
102 104 106 107 105 101 96 91 87 84 82 81 79 76 71 66 66 65 65 69 69 68 68 66 64 63 60 61 65 69 71 73 77 81 81 80 85 90 95 106 110 111 117 125 136 144 140 150 201 214 220 165 131 119 70 352 310 296 296 256 242 267 263 266 280 281 271 273 285 298 307 299 294 289 285 283 281 278 275 272 269 268 269 269 273
92 101 109 113 109 103 95 89 86 81 80 84 84 82 77 69 63 59 58 65 68 69 71 70 66 64 62 60 61 62 65 69 72 79 85 84 87 91 97 106 112 115 118 114 110 115 124 123 117 115 120 119 103 83 67 43 4 331 341 36 43 346 308 297 315 310 283 269 277 292 306 307 303 296 289 286 283 280 279 280 279 279 279 283 288
75 72 85 101 105 102 93 86 83 78 77 80 84 86 83 74 64 55 52 59 61 64 70 72 69 68 64 62 62 61 61 63 65 70 75 75 77 81 86 94 103 108 109 106 103 112 123 119 109 104 102 93 72 57 53 44 24 3 2 8 5 353 345 348 349 331 307 291 287 290 293 296 300 299 294 291 291 288 288 287 287 289 292 293 293
91 72 74 89 94 94 90 83 77 72 72 75 80 86 83 73 63 55 51 53 56 57 61 64 65 67 65 64 69 67 63 62 59 61 66 64 64 68 67 68 75 80 82 84 90 100 108 108 111 114 110 99 87 76 62 48 38 32 26 23 24 22 11 9 11 342 317 312 309 303 298 298 300 300 298 295 292 289 291 294 297 300 298 290 284
123 116 108 96 84 80 78 74 69 65 64 64 67 77 79 71 62 56 53 50 50 53 56 55 58 63 60 59 65 65 64 63 59 58 61 59 59 62 60 55 58 62 63 65 67 69 79 95 108 116 114 109 106 98 75 50 37 33 25 19 26 32 31 29 20 344 328 330 326 314 307 306 309 311 306 298 293 296 303 310 317 315 300 283 282
143 139 134 112 86 76 71 64 56 51 53 56 58 64 72 72 69 65 60 53 50 51 51 50 53 58 57 54 53 51 53 58 58 56 58 58 57 61 62 57 54 54 55 57 62 62 62 74 95 109 114 117 117 94 60 30 19 19 13 7 12 18 20 20 10 344 336 333 322 320 327 329 325 324 312 292 294 313 316 309 304 301 297 295 297
141 146 148 127 107 101 97 89 67 46 41 48 55 60 65 65 63 65 66 63 59 54 47 43 43 45 47 49 49 45 45 53 58 56 54 50 46 49 60 59 50 45 43 40 41 45 43 41 42 38 24 344 337 25 22 9 4 3 1 359 358 354 352 352 340 323 325 322 307 301 310 314 308 309 306 293 292 306 311 306 306 310 310 308 310
133 143 143 122 115 119 120 111 94 69 53 54 56 58 61 60 58 61 66 67 65 60 51 46 43 41 41 43 47 47 41 41 53 65 66 54 38 33 48 56 45 34 32 36 36 30 22 17 14 9 356 333 327 337 345 348 346 343 343 344 341 332 325 320 310 305 314 312 288 269 266 279 295 302 310 311 310 318 321 318 322 324 318 317 326
135 147 139 124 118 124 124 114 106 101 91 83 72 63 61 58 55 57 61 61 60 57 53 46 39 35 30 23 31 44 39 31 33 48 67 68 51 41 47 57 48 35 28 29 23 331 346 357 4 350 337 318 294 295 305 316 323 323 324 327 326 320 312 305 300 294 283 276 272 264 255 275 295 290 300 322 326 337 339 332 334 335 329 330 339
189 175 151 144 143 146 145 135 127 127 122 112 102 88 75 64 55 51 51 53 53 53 52 46 37 29 18 8 14 27 30 29 29 28 33 62 82 77 71 57 43 44 58 77 104 251 278 275 249 261 314 312 283 276 287 298 304 308 312 315 314 310 302 297 290 277 266 265 266 263 255 263 285 289 307 325 326 339 346 341 339 339 338 346 351